Regional Weather Roundup
Issued by NWS

Home | Current Version | Previous Version | Graphics & Text | Print | Product List | Glossary On
Versions: 1 2 3 4 5 6 7 8 9 10 11 12 13 14 15 16 17 18 19 20 21 22 23 24 25 26 27 28 29 30 31 32 33 34 35 36 37 38 39 40 41 42 43 44 45 46 47 48 49 50
000
ASUS43 KIND 160600
RWRIN

WEATHER ROUNDUP FOR INDIANA
NATIONAL WEATHER SERVICE INDIANAPOLIS IN
200 AM EDT WED AUG 16 2017

NOTE: "FAIR" INDICATES FEW OR NO CLOUDS BELOW 12,000 FEET WITH NO
SIGNIFICANT WEATHER AND/OR OBSTRUCTIONS TO VISIBILITY.

* - STATION DOES NOT REPORT WEATHER SUCH AS PRECIPITATION OR FOG.

+ - STATION NOT QUALITY CONTROLLED BY THE NATIONAL WEATHER SERVICE.
    USE DATA WITH CAUTION...ESPECIALLY DEWPOINT AND RELATIVE
    HUMIDITY OBSERVATIONS.

INZ001>003-010>013-019-020-160700-
NORTHWEST INDIANA

CITY           SKY/WX    TMP DP  RH WIND       PRES   REMARKS
MICHIGAN CITY+   N/A     61  61 100 CALM      30.01F FOG
MONTICELLO +   PTCLDY    69  66  91 CALM      29.98S
6HR MIN TEMP:  69; 6HR MAX TEMP:  81;

RENSSELAER +   MOCLDY    64  61  88 N3        30.00R

$$

LMZ046-743>745-160700-
SOUTHERN LAKE MICHIGAN

STATION/POSITION TIME  TEMP    WIND        PRES    WAVE
                       AIR SEA DIR/SP/G            HT
                 (UTC) (F)     (DEG/KT/KT) (MB)    (FT)
BURNS HARBOR     0540   72      50/ 10/ 11 1016.3S
MICHIGAN CITY    0530   68      90/  4/  4   N/A
5NW MICH CITY    0550   72 74   60/  8/ 10   N/A     3

$$

INZ004-005-014>016-021>024-160700-
NORTH CENTRAL INDIANA

CITY           SKY/WX    TMP DP  RH WIND       PRES   REMARKS
GOSHEN         PTCLDY    64  61  90 CALM      30.00R FOG
6HR MIN TEMP:  63; 6HR MAX TEMP:  78;

PERU/GRISSOM   MOCLDY    69  67  93 CALM      29.98R
6HR MIN TEMP:  68; 6HR MAX TEMP:  81;

SOUTH BEND     MOCLDY    65  65 100 CALM      30.01R
6HR MIN TEMP:  64; 6HR MAX TEMP:  74;

WARSAW +       CLEAR     63  63 100 CALM      30.01R FOG

$$

INZ006>009-017-018-025>027-160700-
NORTHEAST INDIANA

CITY           SKY/WX    TMP DP  RH WIND       PRES   REMARKS
FORT WAYNE     PTCLDY    67  63  87 CALM      29.99S
6HR MIN TEMP:  67; 6HR MAX TEMP:  80;

KENDALLVILLE + FOG       62  62 100 CALM      30.01R VSB 1/4

$$

INZ028-029-035-036-043>045-051>053-160700-
WEST CENTRAL INDIANA

CITY           SKY/WX    TMP DP  RH WIND       PRES   REMARKS
LAFAYETTE      PTCLDY    69  67  93 CALM      29.98R
6HR MIN TEMP:  68; 6HR MAX TEMP:  80;

TERRE HAUTE    CLEAR     67  65  93 CALM      29.97S
6HR MIN TEMP:  67; 6HR MAX TEMP:  83;


$$

INZ030>032-037>040-046>048-054>057-064-065-160700-
CENTRAL INDIANA

CITY           SKY/WX    TMP DP  RH WIND       PRES   REMARKS
GREENWOOD *+   PTCLDY    67  65  93 CALM      29.99S
INDIANAPOLIS   PTCLDY    74  67  78 CALM      29.98R
6HR MIN TEMP:  74; 6HR MAX TEMP:  84;

-EAGLE CREEK   PTCLDY    73  68  84 CALM      29.98R
6HR MIN TEMP:  73; 6HR MAX TEMP:  84;

KOKOMO +       CLOUDY    66  65  96 CALM      30.00R
6HR MIN TEMP:  66; 6HR MAX TEMP:  82;

MT COMFORT *+  CLEAR     66  64  94 E3        29.99S
SHELBYVILLE    CLEAR     67  63  87 E3        29.98S
6HR MIN TEMP:  67; 6HR MAX TEMP:  83;


$$

INZ033-034-041-042-049-050-058-059-160700-
EAST CENTRAL INDIANA

CITY           SKY/WX    TMP DP  RH WIND       PRES   REMARKS
MUNCIE         CLEAR     67  63  87 CALM      30.00R
6HR MIN TEMP:  67; 6HR MAX TEMP:  83;

RICHMOND +     PTCLDY    64  64 100 E3        30.01S FOG

$$

INZ060-061-067>069-081>083-085>088-160700-
SOUTHWEST INDIANA

CITY           SKY/WX    TMP DP  RH WIND       PRES   REMARKS
EVANSVILLE     CLEAR     72  70  93 CALM      29.96F
6HR MIN TEMP:  72; 6HR MAX TEMP:  82;

HUNTINGBURG *+ LGT RAIN  71  70  96 CALM      29.97F VSB 3/4
6HR MIN TEMP:  70; 6HR MAX TEMP:  77; 6HR PCP: TRACE;


$$

INZ062-063-066-070>080-084-089>092-160700-
SOUTH CENTRAL AND SOUTHEAST INDIANA

CITY           SKY/WX    TMP DP  RH WIND       PRES   REMARKS
BLOOMINGTON    CLEAR     67  65  93 CALM      29.99R FOG
6HR MIN TEMP:  65; 6HR MAX TEMP:  81;

MADISON *+     CLEAR     68  68 100 CALM      30.02S
SEYMOUR +        N/A     68  68 100 CALM      29.98S FOG

$$




USA.gov is the U.S. government's official web portal to all federal, state and local government web resources and services.